User: anonymous   Login
Location: Unspecified
(0.0000°N, 0.0000°E)
Time: 11:51:13
(UTC+00:00)
Language:

Polar - Orbit

View from above orbital plane
View from above orbital plane
View from above satellite
View from above satellite

Ground track
Ground track

The orbit data is extracted from the following two-line orbital elements,

1 23802U 96013A   19138.83477590 -.00000052 +00000-0 +00000-0 0  9997
2 23802 078.6870 255.6804 6732852 296.5298 010.7967 01.29845134111276
Epoch (UTC): 18 May 2019 20:02:04
Eccentricity: 0.6732852
inclination: 78.6870°
perigee height: 5217 km
apogee height: 53008 km
right ascension of ascending node: 255.6804°
argument of perigee: 296.5298°
revolutions per day: 1.29845134
mean anomaly at epoch: 10.7967°
orbit number at epoch: 11127

The dashed part of the orbit path shows where the satellite is in the earth's shadow,  

DLR